User: anonymous   Login
Location: Unspecified
(0.0000°N, 0.0000°E)
Time: 22:04:17
(UTC+02:00)
Language:

Centaur AC-64 - Orbit

View from above orbital plane
View from above orbital plane
View from above satellite
View from above satellite

Ground track
Ground track

The orbit data is extracted from the following two-line orbital elements,

1 15874U 85055B   17261.99145811  .00001517  00000-0  64543-3 0  9992
2 15874  23.2888  38.4895 6572258 293.5634  12.6433  3.19481501333440
Epoch (UTC): 18 September 2017 23:47:41
Eccentricity: 0.6572258
inclination: 23.2888°
perigee height: 297 km
apogee height: 25893 km
right ascension of ascending node: 38.4895°
argument of perigee: 293.5634°
revolutions per day: 3.19481501
mean anomaly at epoch: 12.6433°
orbit number at epoch: 33344

The dashed part of the orbit path shows where the satellite is in the earth's shadow,  

DLR